Time,TemperatureF,DewpointF,PressureIn,WindDirection,WindDirectionDegrees,WindSpeedMPH,WindSpeedGustMPH,Humidity,HourlyPrecipIn,Conditions,Clouds,dailyrainin,SoftwareType,DateUTC
2013-06-23 00:00:00,54.0,45.5,29.59,WSW,240,6.0,10.0,73,0.00,CLR,,0.00,WeatherDisplay:10.37,2013-06-23 07:00:00,
2013-06-23 00:05:00,54.0,45.5,29.59,SW,227,7.0,12.0,73,0.00,CLR,,0.00,WeatherDisplay:10.37,2013-06-23 07:05:00,
2013-06-23 00:10:00,54.0,45.5,29.59,SW,216,7.0,12.0,73,0.00,CLR,,0.00,WeatherDisplay:10.37,2013-06-23 07:10:00,
2013-06-23 00:15:00,54.0,45.5,29.59,SW,220,6.0,10.0,73,0.00,CLR,,0.00,WeatherDisplay:10.37,2013-06-23 07:15:00,
2013-06-23 00:20:00,53.6,45.5,29.59,SW,219,7.0,15.0,74,0.00,CLR,,0.00,WeatherDisplay:10.37,2013-06-23 07:20:00,
2013-06-23 00:25:00,53.6,45.5,29.62,SSW,202,6.0,15.0,74,0.00,CLR,,0.00,WeatherDisplay:10.37,2013-06-23 07:25:00,
2013-06-23 00:30:00,53.6,45.5,29.62,SSW,207,5.0,10.0,74,0.00,CLR,,0.00,WeatherDisplay:10.37,2013-06-23 07:30:00,
2013-06-23 00:35:00,53.6,45.5,29.62,SW,219,7.0,12.0,74,0.00,CLR,,0.00,WeatherDisplay:10.37,2013-06-23 07:35:00,
2013-06-23 00:40:00,53.6,45.5,29.62,SW,218,8.0,15.0,74,0.00,CLR,,0.00,WeatherDisplay:10.37,2013-06-23 07:40:00,
2013-06-23 00:45:00,53.6,45.5,29.62,SW,225,6.0,16.0,74,0.00,CLR,,0.00,WeatherDisplay:10.37,2013-06-23 07:45:00,
2013-06-23 00:50:00,53.6,45.5,29.62,WSW,251,6.0,15.0,74,0.00,CLR,,0.00,WeatherDisplay:10.37,2013-06-23 07:50:00,
2013-06-23 00:55:00,53.1,45.7,29.59,WSW,254,6.0,17.0,76,0.00,CLR,,0.00,WeatherDisplay:10.37,2013-06-23 07:55:00,
2013-06-23 01:00:00,53.1,45.7,29.59,SW,227,6.0,13.0,76,0.00,CLR,,0.00,WeatherDisplay:10.37,2013-06-23 08:00:00,
2013-06-23 01:05:00,53.0,45.7,29.59,SW,229,7.0,13.0,76,0.00,CLR,,0.00,WeatherDisplay:10.37,2013-06-23 08:05:00,
2013-06-23 01:10:00,52.9,46.2,29.59,WSW,245,7.0,13.0,78,0.00,CLR,,0.00,WeatherDisplay:10.37,2013-06-23 08:10:00,
2013-06-23 01:15:00,52.9,46.2,29.59,WSW,253,7.0,14.0,78,0.00,CLR,,0.00,WeatherDisplay:10.37,2013-06-23 08:15:00,
2013-06-23 01:20:00,52.9,46.2,29.59,SW,234,7.0,16.0,78,0.00,CLR,,0.00,WeatherDisplay:10.37,2013-06-23 08:20:00,
2013-06-23 01:30:00,52.7,46.4,29.59,WSW,250,7.0,12.0,79,0.00,CLR,,0.00,WeatherDisplay:10.37,2013-06-23 08:30:00,
2013-06-23 01:35:00,52.7,46.4,29.59,WSW,240,6.0,13.0,79,0.00,CLR,,0.00,WeatherDisplay:10.37,2013-06-23 08:35:00,
2013-06-23 01:40:00,52.6,46.6,29.59,SSW,196,7.0,14.0,80,0.00,CLR,,0.00,WeatherDisplay:10.37,2013-06-23 08:40:00,
2013-06-23 01:45:00,52.5,46.5,29.59,SW,230,7.0,15.0,80,0.00,CLR,,0.00,WeatherDisplay:10.37,2013-06-23 08:45:00,
2013-06-23 01:50:00,52.5,46.5,29.59,WSW,237,7.0,10.0,80,0.00,CLR,,0.00,WeatherDisplay:10.37,2013-06-23 08:50:00,
2013-06-23 01:55:00,52.5,46.5,29.59,WSW,241,5.0,12.0,80,0.00,CLR,,0.00,WeatherDisplay:10.37,2013-06-23 08:55:00,
2013-06-23 02:00:00,52.5,46.5,29.59,SW,224,6.0,12.0,80,0.00,CLR,,0.00,WeatherDisplay:10.37,2013-06-23 09:00:00,
2013-06-23 02:05:00,52.5,47.2,29.59,SW,225,6.0,10.0,82,0.00,CLR,,0.00,WeatherDisplay:10.37,2013-06-23 09:05:00,
2013-06-23 02:10:00,52.5,47.2,29.59,WNW,282,6.0,10.0,82,0.00,CLR,,0.00,WeatherDisplay:10.37,2013-06-23 09:10:00,
2013-06-23 02:20:00,52.5,47.2,29.59,WSW,245,8.0,15.0,82,0.00,CLR,,0.00,WeatherDisplay:10.37,2013-06-23 09:20:00,
2013-06-23 02:25:00,52.5,47.2,29.59,WSW,251,5.0,10.0,82,0.00,CLR,,0.00,WeatherDisplay:10.37,2013-06-23 09:25:00,
2013-06-23 02:30:00,52.7,47.7,29.59,WSW,249,7.0,12.0,83,0.00,CLR,,0.00,WeatherDisplay:10.37,2013-06-23 09:30:00,
2013-06-23 02:35:00,52.5,47.5,29.59,WSW,237,7.0,13.0,83,0.00,CLR,,0.00,WeatherDisplay:10.37,2013-06-23 09:35:00,
2013-06-23 02:40:00,52.5,47.5,29.59,SW,223,7.0,10.0,83,0.00,CLR,,0.00,WeatherDisplay:10.37,2013-06-23 09:40:00,
2013-06-23 02:50:00,52.5,47.5,29.59,SW,227,8.0,13.0,83,0.00,CLR,,0.00,WeatherDisplay:10.37,2013-06-23 09:50:00,
2013-06-23 02:55:00,52.5,47.5,29.62,SSW,213,6.0,10.0,83,0.00,CLR,,0.00,WeatherDisplay:10.37,2013-06-23 09:55:00,
2013-06-23 03:00:00,52.7,47.7,29.62,SSW,201,6.0,8.0,83,0.00,CLR,,0.00,WeatherDisplay:10.37,2013-06-23 10:00:00,
2013-06-23 03:05:00,52.7,48.0,29.62,SSW,196,5.0,8.0,84,0.00,CLR,,0.00,WeatherDisplay:10.37,2013-06-23 10:05:00,
2013-06-23 03:10:00,52.7,48.0,29.59,SSW,207,5.0,6.0,84,0.00,CLR,,0.00,WeatherDisplay:10.37,2013-06-23 10:10:00,
2013-06-23 03:15:00,52.7,48.0,29.59,SSW,204,3.0,8.0,84,0.00,CLR,,0.00,WeatherDisplay:10.37,2013-06-23 10:15:00,
2013-06-23 03:20:00,52.7,48.0,29.59,South,173,2.0,6.0,84,0.00,CLR,,0.00,WeatherDisplay:10.37,2013-06-23 10:20:00,
2013-06-23 03:25:00,52.9,48.2,29.59,SSE,166,3.0,7.0,84,0.00,CLR,,0.00,WeatherDisplay:10.37,2013-06-23 10:25:00,
2013-06-23 03:30:00,52.9,48.2,29.59,South,179,6.0,6.0,84,0.00,CLR,,0.00,WeatherDisplay:10.37,2013-06-23 10:30:00,
2013-06-23 03:35:00,52.9,48.2,29.59,South,178,3.0,8.0,84,0.00,CLR,,0.00,WeatherDisplay:10.37,2013-06-23 10:35:00,
2013-06-23 03:40:00,53.2,48.5,29.59,SW,225,5.0,10.0,84,0.00,CLR,,0.00,WeatherDisplay:10.37,2013-06-23 10:40:00,
2013-06-23 03:45:00,53.2,48.5,29.59,South,186,6.0,8.0,84,0.00,CLR,,0.00,WeatherDisplay:10.37,2013-06-23 10:45:00,
2013-06-23 03:50:00,53.2,48.5,29.59,SSE,163,5.0,13.0,84,0.00,CLR,,0.00,WeatherDisplay:10.37,2013-06-23 10:50:00,
2013-06-23 03:55:00,53.2,48.8,29.59,South,174,7.0,9.0,85,0.00,CLR,,0.00,WeatherDisplay:10.37,2013-06-23 10:55:00,
2013-06-23 04:00:00,53.2,48.8,29.59,SW,216,6.0,9.0,85,0.00,CLR,,0.00,WeatherDisplay:10.37,2013-06-23 11:00:00,
2013-06-23 04:05:00,53.2,48.8,29.59,SW,232,5.0,9.0,85,0.00,CLR,,0.00,WeatherDisplay:10.37,2013-06-23 11:05:00,
2013-06-23 04:10:00,53.2,48.8,29.59,SW,221,5.0,8.0,85,0.00,CLR,,0.00,WeatherDisplay:10.37,2013-06-23 11:10:00,
2013-06-23 04:15:00,53.2,48.8,29.59,SW,226,7.0,10.0,85,0.00,CLR,,0.00,WeatherDisplay:10.37,2013-06-23 11:15:00,
2013-06-23 04:20:00,53.2,48.8,29.59,SW,236,6.0,9.0,85,0.00,CLR,,0.00,WeatherDisplay:10.37,2013-06-23 11:20:00,
2013-06-23 04:25:00,53.2,48.8,29.59,WSW,239,3.0,10.0,85,0.00,CLR,,0.00,WeatherDisplay:10.37,2013-06-23 11:25:00,
2013-06-23 04:30:00,52.9,48.5,29.59,SW,225,3.0,12.0,85,0.00,CLR,,0.00,WeatherDisplay:10.37,2013-06-23 11:30:00,
2013-06-23 04:35:00,53.1,48.7,29.59,SW,218,7.0,10.0,85,0.00,CLR,,0.00,WeatherDisplay:10.37,2013-06-23 11:35:00,
2013-06-23 04:40:00,52.9,48.5,29.59,SSW,206,5.0,12.0,85,0.00,CLR,,0.00,WeatherDisplay:10.37,2013-06-23 11:40:00,
2013-06-23 04:45:00,52.9,48.5,29.59,South,186,3.0,8.0,85,0.00,CLR,,0.00,WeatherDisplay:10.37,2013-06-23 11:45:00,
2013-06-23 04:50:00,52.9,48.5,29.59,South,178,3.0,8.0,85,0.00,CLR,,0.00,WeatherDisplay:10.37,2013-06-23 11:50:00,
2013-06-23 04:55:00,52.9,48.5,29.59,SSW,193,2.0,9.0,85,0.00,CLR,,0.00,WeatherDisplay:10.37,2013-06-23 11:55:00,
2013-06-23 05:00:00,53.4,49.6,29.59,SSW,207,1.0,9.0,87,0.00,CLR,,0.00,WeatherDisplay:10.37,2013-06-23 12:00:00,
2013-06-23 05:05:00,53.2,50.1,29.59,SW,224,3.0,6.0,89,0.00,CLR,,0.00,WeatherDisplay:10.37,2013-06-23 12:05:00,
2013-06-23 05:10:00,53.4,50.3,29.59,SSW,212,3.0,10.0,89,0.00,CLR,,0.00,WeatherDisplay:10.37,2013-06-23 12:10:00,
2013-06-23 05:20:00,53.8,50.9,29.59,SW,219,2.0,9.0,90,0.00,CLR,,0.00,WeatherDisplay:10.37,2013-06-23 12:20:00,
2013-06-23 05:25:00,53.8,50.9,29.59,SW,216,5.0,7.0,90,0.00,CLR,,0.00,WeatherDisplay:10.37,2013-06-23 12:25:00,
2013-06-23 05:30:00,53.8,50.9,29.59,South,186,5.0,9.0,90,0.00,CLR,,0.00,WeatherDisplay:10.37,2013-06-23 12:30:00,
2013-06-23 05:35:00,53.8,50.9,29.59,SW,230,3.0,12.0,90,0.00,CLR,,0.00,WeatherDisplay:10.37,2013-06-23 12:35:00,
2013-06-23 05:40:00,53.8,50.9,29.59,SSW,206,2.0,7.0,90,0.00,CLR,,0.00,WeatherDisplay:10.37,2013-06-23 12:40:00,
2013-06-23 05:45:00,53.8,50.9,29.59,South,189,5.0,9.0,90,0.00,CLR,,0.00,WeatherDisplay:10.37,2013-06-23 12:45:00,
2013-06-23 05:50:00,53.8,50.9,29.59,SSW,203,3.0,10.0,90,0.00,CLR,,0.00,WeatherDisplay:10.37,2013-06-23 12:50:00,
2013-06-23 05:55:00,53.8,50.9,29.59,SSW,202,2.0,6.0,90,0.00,CLR,,0.00,WeatherDisplay:10.37,2013-06-23 12:55:00,
2013-06-23 06:00:00,53.8,50.9,29.59,South,189,0.0,7.0,90,0.00,CLR,,0.00,WeatherDisplay:10.37,2013-06-23 13:00:00,
2013-06-23 06:05:00,53.8,50.9,29.59,SSW,193,2.0,7.0,90,0.00,CLR,,0.00,WeatherDisplay:10.37,2013-06-23 13:05:00,
2013-06-23 06:10:00,54.1,51.6,29.59,South,187,0.0,6.0,91,0.00,CLR,,0.00,WeatherDisplay:10.37,2013-06-23 13:10:00,
2013-06-23 06:15:00,54.1,51.6,29.59,South,189,0.0,5.0,91,0.00,CLR,,0.00,WeatherDisplay:10.37,2013-06-23 13:15:00,
2013-06-23 06:20:00,54.1,51.6,29.59,South,187,3.0,7.0,91,0.00,CLR,,0.00,WeatherDisplay:10.37,2013-06-23 13:20:00,
2013-06-23 06:25:00,54.1,51.6,29.59,SSW,205,2.0,12.0,91,0.00,CLR,,0.00,WeatherDisplay:10.37,2013-06-23 13:25:00,
2013-06-23 06:30:00,54.1,51.6,29.59,SW,231,2.0,6.0,91,0.00,CLR,,0.00,WeatherDisplay:10.37,2013-06-23 13:30:00,
2013-06-23 06:35:00,54.0,51.4,29.59,WSW,253,0.0,6.0,91,0.00,CLR,,0.00,WeatherDisplay:10.37,2013-06-23 13:35:00,
2013-06-23 06:40:00,54.0,51.4,29.59,SW,233,5.0,7.0,91,0.00,CLR,,0.00,WeatherDisplay:10.37,2013-06-23 13:40:00,
2013-06-23 06:45:00,54.0,51.4,29.59,SW,221,0.0,8.0,91,0.00,CLR,,0.00,WeatherDisplay:10.37,2013-06-23 13:45:00,
2013-06-23 06:50:00,54.0,51.4,29.59,SSW,201,3.0,9.0,91,0.00,CLR,,0.00,WeatherDisplay:10.37,2013-06-23 13:50:00,
2013-06-23 06:55:00,54.0,51.4,29.59,SSW,204,3.0,6.0,91,0.00,CLR,,0.00,WeatherDisplay:10.37,2013-06-23 13:55:00,
2013-06-23 07:00:00,54.5,51.9,29.59,WSW,241,3.0,6.0,91,0.00,CLR,,0.00,WeatherDisplay:10.37,2013-06-23 14:00:00,
2013-06-23 07:05:00,54.7,52.1,29.59,SW,218,3.0,8.0,91,0.00,CLR,,0.00,WeatherDisplay:10.37,2013-06-23 14:05:00,
2013-06-23 07:10:00,54.7,52.1,29.59,SSW,196,6.0,8.0,91,0.00,CLR,,0.00,WeatherDisplay:10.37,2013-06-23 14:10:00,
2013-06-23 07:20:00,54.7,52.1,29.59,SW,226,5.0,10.0,91,0.00,CLR,,0.00,WeatherDisplay:10.37,2013-06-23 14:20:00,
2013-06-23 07:25:00,55.0,52.2,29.59,SW,217,3.0,7.0,90,0.00,CLR,,0.00,WeatherDisplay:10.37,2013-06-23 14:25:00,
2013-06-23 07:30:00,55.0,52.2,29.59,SW,234,5.0,8.0,90,0.00,CLR,,0.00,WeatherDisplay:10.37,2013-06-23 14:30:00,
2013-06-23 07:35:00,55.0,52.2,29.59,WSW,250,5.0,6.0,90,0.00,CLR,,0.00,WeatherDisplay:10.37,2013-06-23 14:35:00,
2013-06-23 07:40:00,55.0,52.2,29.59,WSW,239,5.0,9.0,90,0.00,CLR,,0.00,WeatherDisplay:10.37,2013-06-23 14:40:00,
2013-06-23 07:45:00,55.0,52.2,29.59,SW,220,5.0,10.0,90,0.00,CLR,,0.00,WeatherDisplay:10.37,2013-06-23 14:45:00,
2013-06-23 07:50:00,55.0,52.2,29.59,SW,226,5.0,8.0,90,0.00,CLR,,0.00,WeatherDisplay:10.37,2013-06-23 14:50:00,
2013-06-23 07:55:00,55.8,50.7,29.62,SW,229,3.0,6.0,83,0.00,CLR,,0.00,WeatherDisplay:10.37,2013-06-23 14:55:00,
2013-06-23 08:05:00,56.5,51.1,29.62,SW,235,5.0,9.0,82,0.00,CLR,,0.00,WeatherDisplay:10.37,2013-06-23 15:05:00,
2013-06-23 08:10:00,56.5,50.7,29.62,SW,225,3.0,9.0,81,0.00,CLR,,0.00,WeatherDisplay:10.37,2013-06-23 15:10:00,
2013-06-23 08:15:00,56.5,50.7,29.62,SW,228,3.0,9.0,81,0.00,CLR,,0.00,WeatherDisplay:10.37,2013-06-23 15:15:00,
2013-06-23 08:20:00,56.5,50.7,29.62,WSW,249,3.0,8.0,81,0.00,CLR,,0.00,WeatherDisplay:10.37,2013-06-23 15:20:00,
2013-06-23 08:25:00,56.4,49.6,29.62,West,267,3.0,8.0,78,0.00,CLR,,0.00,WeatherDisplay:10.37,2013-06-23 15:25:00,
2013-06-23 08:30:00,56.3,48.8,29.62,WSW,250,3.0,10.0,76,0.00,CLR,,0.00,WeatherDisplay:10.37,2013-06-23 15:30:00,
2013-06-23 08:35:00,56.3,48.8,29.62,SW,226,5.0,8.0,76,0.00,CLR,,0.00,WeatherDisplay:10.37,2013-06-23 15:35:00,
2013-06-23 08:40:00,56.3,48.8,29.62,SW,225,2.0,8.0,76,0.00,CLR,,0.00,WeatherDisplay:10.37,2013-06-23 15:40:00,
2013-06-23 08:50:00,56.3,48.8,29.62,South,173,2.0,5.0,76,0.00,CLR,,0.00,WeatherDisplay:10.37,2013-06-23 15:50:00,
2013-06-23 08:55:00,56.3,48.8,29.65,South,189,6.0,8.0,76,0.00,CLR,,0.00,WeatherDisplay:10.37,2013-06-23 15:55:00,
2013-06-23 09:05:00,56.4,48.6,29.65,WNW,286,2.0,6.0,75,0.00,CLR,,0.00,WeatherDisplay:10.37,2013-06-23 16:05:00,
2013-06-23 09:10:00,56.7,48.5,29.62,SSE,153,0.0,5.0,74,0.00,CLR,,0.00,WeatherDisplay:10.37,2013-06-23 16:10:00,
2013-06-23 09:15:00,56.7,48.5,29.62,ESE,104,0.0,6.0,74,0.00,CLR,,0.00,WeatherDisplay:10.37,2013-06-23 16:15:00,
2013-06-23 09:20:00,56.7,48.5,29.62,SE,142,0.0,6.0,74,0.00,CLR,,0.00,WeatherDisplay:10.37,2013-06-23 16:20:00,
2013-06-23 09:25:00,56.7,48.5,29.62,SSW,203,0.0,6.0,74,0.00,CLR,,0.00,WeatherDisplay:10.37,2013-06-23 16:25:00,
2013-06-23 09:30:00,56.7,48.5,29.62,SW,222,2.0,6.0,74,0.00,CLR,,0.00,WeatherDisplay:10.37,2013-06-23 16:30:00,
2013-06-23 09:40:00,56.7,48.5,29.62,SSW,205,0.0,6.0,74,0.00,CLR,,0.00,WeatherDisplay:10.37,2013-06-23 16:40:00,
2013-06-23 09:45:00,56.7,48.5,29.62,SSE,164,0.0,4.0,74,0.00,CLR,,0.00,WeatherDisplay:10.37,2013-06-23 16:45:00,
2013-06-23 09:50:00,56.7,48.5,29.62,East,100,2.0,5.0,74,0.00,CLR,,0.00,WeatherDisplay:10.37,2013-06-23 16:50:00,
2013-06-23 09:55:00,58.8,49.4,29.65,ENE,63,0.0,4.0,71,0.00,CLR,,0.00,WeatherDisplay:10.37,2013-06-23 16:55:00,
2013-06-23 10:00:00,58.8,49.4,29.65,NE,39,0.0,4.0,71,0.00,CLR,,0.00,WeatherDisplay:10.37,2013-06-23 17:00:00,
2013-06-23 10:10:00,62.4,49.7,29.62,ENE,58,2.0,5.0,63,0.00,CLR,,0.00,WeatherDisplay:10.37,2013-06-23 17:10:00,
2013-06-23 10:15:00,62.4,49.7,29.62,SSE,162,0.0,5.0,63,0.00,CLR,,0.00,WeatherDisplay:10.37,2013-06-23 17:15:00,
2013-06-23 10:20:00,62.4,49.7,29.62,NE,39,0.0,5.0,63,0.00,CLR,,0.00,WeatherDisplay:10.37,2013-06-23 17:20:00,
2013-06-23 10:25:00,62.4,48.8,29.62,SE,132,2.0,5.0,61,0.00,CLR,,0.00,WeatherDisplay:10.37,2013-06-23 17:25:00,
2013-06-23 10:30:00,62.4,48.8,29.62,WSW,238,3.0,5.0,61,0.00,CLR,,0.00,WeatherDisplay:10.37,2013-06-23 17:30:00,
2013-06-23 10:35:00,62.4,48.8,29.62,WSW,238,0.0,6.0,61,0.00,CLR,,0.00,WeatherDisplay:10.37,2013-06-23 17:35:00,
2013-06-23 10:40:00,62.4,48.8,29.62,SSW,196,0.0,6.0,61,0.00,CLR,,0.00,WeatherDisplay:10.37,2013-06-23 17:40:00,
2013-06-23 10:45:00,62.4,48.8,29.62,South,183,0.0,6.0,61,0.00,CLR,,0.00,WeatherDisplay:10.37,2013-06-23 17:45:00,
2013-06-23 10:50:00,61.9,47.8,29.62,SSE,168,0.0,5.0,60,0.00,CLR,,0.00,WeatherDisplay:10.37,2013-06-23 17:50:00,
2013-06-23 10:55:00,61.9,47.8,29.62,SSE,147,3.0,4.0,60,0.00,CLR,,0.00,WeatherDisplay:10.37,2013-06-23 17:55:00,
2013-06-23 11:00:00,61.9,47.8,29.62,SE,141,0.0,2.0,60,0.00,CLR,,0.00,WeatherDisplay:10.37,2013-06-23 18:00:00,
2013-06-23 11:05:00,61.9,47.8,29.62,SSE,150,3.0,6.0,60,0.00,CLR,,0.00,WeatherDisplay:10.37,2013-06-23 18:05:00,
2013-06-23 11:10:00,61.9,47.8,29.65,SSE,154,2.0,5.0,60,0.00,CLR,,0.00,WeatherDisplay:10.37,2013-06-23 18:10:00,
2013-06-23 11:15:00,61.9,47.8,29.65,SSE,159,2.0,4.0,60,0.00,CLR,,0.00,WeatherDisplay:10.37,2013-06-23 18:15:00,
2013-06-23 11:20:00,61.9,47.8,29.65,South,185,0.0,6.0,60,0.00,CLR,,0.00,WeatherDisplay:10.37,2013-06-23 18:20:00,
2013-06-23 11:25:00,60.0,47.4,29.65,SW,234,3.0,7.0,63,0.00,CLR,,0.00,WeatherDisplay:10.37,2013-06-23 18:25:00,
2013-06-23 11:30:00,59.4,48.0,29.65,SSW,205,2.0,4.0,66,0.00,CLR,,0.00,WeatherDisplay:10.37,2013-06-23 18:30:00,
2013-06-23 11:35:00,59.4,48.0,29.65,SE,139,0.0,6.0,66,0.00,CLR,,0.00,WeatherDisplay:10.37,2013-06-23 18:35:00,
2013-06-23 11:45:00,59.4,48.0,29.65,ESE,117,0.0,5.0,66,0.00,CLR,,0.00,WeatherDisplay:10.37,2013-06-23 18:45:00,
2013-06-23 11:50:00,59.4,48.0,29.65,South,190,2.0,5.0,66,0.00,CLR,,0.00,WeatherDisplay:10.37,2013-06-23 18:50:00,
2013-06-23 11:55:00,59.4,48.0,29.65,NNW,333,0.0,5.0,66,0.00,CLR,,0.00,WeatherDisplay:10.37,2013-06-23 18:55:00,
2013-06-23 12:00:00,59.4,48.0,29.65,SW,223,2.0,6.0,66,0.00,CLR,,0.00,WeatherDisplay:10.37,2013-06-23 19:00:00,
2013-06-23 12:05:00,59.4,48.0,29.65,WSW,257,0.0,6.0,66,0.00,CLR,,0.00,WeatherDisplay:10.37,2013-06-23 19:05:00,
2013-06-23 12:15:00,59.4,48.0,29.62,West,273,2.0,8.0,66,0.00,CLR,,0.00,WeatherDisplay:10.37,2013-06-23 19:15:00,
2013-06-23 12:20:00,59.4,48.0,29.62,West,280,2.0,6.0,66,0.00,CLR,,0.00,WeatherDisplay:10.37,2013-06-23 19:20:00,
2013-06-23 12:30:00,59.4,48.0,29.62,WNW,302,0.0,7.0,66,0.00,CLR,,0.00,WeatherDisplay:10.37,2013-06-23 19:30:00,
2013-06-23 12:35:00,59.4,48.0,29.62,NNE,29,0.0,6.0,66,0.00,CLR,,0.00,WeatherDisplay:10.37,2013-06-23 19:35:00,
2013-06-23 12:40:00,59.4,48.0,29.62,SW,234,2.0,6.0,66,0.00,CLR,,0.00,WeatherDisplay:10.37,2013-06-23 19:40:00,
2013-06-23 12:50:00,59.4,48.0,29.62,SSW,205,3.0,7.0,66,0.00,CLR,,0.00,WeatherDisplay:10.37,2013-06-23 19:50:00,
2013-06-23 12:55:00,59.4,48.0,29.62,SW,233,2.0,6.0,66,0.00,CLR,,0.00,WeatherDisplay:10.37,2013-06-23 19:55:00,
2013-06-23 13:00:00,59.4,48.0,29.62,West,263,0.0,8.0,66,0.00,CLR,,0.00,WeatherDisplay:10.37,2013-06-23 20:00:00,
2013-06-23 13:05:00,59.4,48.0,29.62,WSW,243,0.0,5.0,66,0.00,CLR,,0.00,WeatherDisplay:10.37,2013-06-23 20:05:00,
2013-06-23 13:10:00,59.4,48.0,29.65,SW,236,0.0,6.0,66,0.00,CLR,,0.00,WeatherDisplay:10.37,2013-06-23 20:10:00,
2013-06-23 13:15:00,59.4,48.0,29.65,SW,235,0.0,5.0,66,0.00,CLR,,0.00,WeatherDisplay:10.37,2013-06-23 20:15:00,
2013-06-23 13:25:00,59.4,48.0,29.62,West,266,0.0,3.0,66,0.00,CLR,,0.00,WeatherDisplay:10.37,2013-06-23 20:25:00,
2013-06-23 13:30:00,59.4,48.0,29.62,SW,236,0.0,5.0,66,0.00,CLR,,0.00,WeatherDisplay:10.37,2013-06-23 20:30:00,
2013-06-23 13:40:00,59.4,48.0,29.62,SW,229,0.0,6.0,66,0.00,CLR,,0.00,WeatherDisplay:10.37,2013-06-23 20:40:00,
2013-06-23 13:45:00,59.4,48.0,29.62,WSW,243,2.0,6.0,66,0.00,CLR,,0.00,WeatherDisplay:10.37,2013-06-23 20:45:00,
2013-06-23 13:50:00,59.4,48.0,29.62,WSW,240,0.0,5.0,66,0.00,CLR,,0.00,WeatherDisplay:10.37,2013-06-23 20:50:00,
2013-06-23 14:00:00,59.4,48.0,29.62,West,272,0.0,5.0,66,0.00,CLR,,0.00,WeatherDisplay:10.37,2013-06-23 21:00:00,
2013-06-23 14:10:00,59.4,48.0,29.62,SW,227,2.0,6.0,66,0.00,CLR,,0.00,WeatherDisplay:10.37,2013-06-23 21:10:00,
2013-06-23 14:15:00,59.4,48.0,29.62,West,270,0.0,5.0,66,0.00,CLR,,0.00,WeatherDisplay:10.37,2013-06-23 21:15:00,
2013-06-23 14:20:00,59.4,48.0,29.62,SSW,208,0.0,5.0,66,0.00,CLR,,0.00,WeatherDisplay:10.37,2013-06-23 21:20:00,
2013-06-23 14:25:00,59.4,48.0,29.62,SW,225,2.0,6.0,66,0.00,CLR,,0.00,WeatherDisplay:10.37,2013-06-23 21:25:00,
2013-06-23 14:30:00,59.4,48.0,29.62,WSW,240,0.0,6.0,66,0.00,CLR,,0.00,WeatherDisplay:10.37,2013-06-23 21:30:00,
2013-06-23 14:35:00,59.4,48.0,29.62,WSW,252,2.0,4.0,66,0.00,CLR,,0.00,WeatherDisplay:10.37,2013-06-23 21:35:00,
2013-06-23 14:40:00,59.4,48.0,29.62,South,188,0.0,6.0,66,0.00,CLR,,0.00,WeatherDisplay:10.37,2013-06-23 21:40:00,
2013-06-23 14:45:00,59.4,48.0,29.62,South,180,2.0,6.0,66,0.00,CLR,,0.00,WeatherDisplay:10.37,2013-06-23 21:45:00,
2013-06-23 14:50:00,59.4,48.0,29.62,SSW,199,2.0,6.0,66,0.00,CLR,,0.00,WeatherDisplay:10.37,2013-06-23 21:50:00,
2013-06-23 14:55:00,66.0,47.4,29.62,SSW,199,0.0,6.0,51,0.00,CLR,,0.00,WeatherDisplay:10.37,2013-06-23 21:55:00,
2013-06-23 15:00:00,66.0,47.4,29.62,SW,233,0.0,9.0,51,0.00,CLR,,0.00,WeatherDisplay:10.37,2013-06-23 22:00:00,
2013-06-23 15:05:00,66.0,47.4,29.62,WSW,249,0.0,5.0,51,0.00,CLR,,0.00,WeatherDisplay:10.37,2013-06-23 22:05:00,
2013-06-23 15:10:00,66.0,47.4,29.62,WSW,257,2.0,7.0,51,0.00,CLR,,0.00,WeatherDisplay:10.37,2013-06-23 22:10:00,
2013-06-23 15:15:00,66.0,47.4,29.62,SW,235,0.0,8.0,51,0.00,CLR,,0.00,WeatherDisplay:10.37,2013-06-23 22:15:00,
2013-06-23 15:20:00,66.0,47.4,29.62,South,191,0.0,5.0,51,0.00,CLR,,0.00,WeatherDisplay:10.37,2013-06-23 22:20:00,
2013-06-23 15:25:00,66.0,47.4,29.62,SSW,210,2.0,6.0,51,0.00,CLR,,0.00,WeatherDisplay:10.37,2013-06-23 22:25:00,
2013-06-23 15:30:00,68.5,46.9,29.62,SW,221,0.0,6.0,46,0.00,CLR,,0.00,WeatherDisplay:10.37,2013-06-23 22:30:00,
2013-06-23 15:35:00,68.0,46.4,29.62,SSW,206,2.0,6.0,46,0.00,CLR,,0.00,WeatherDisplay:10.37,2013-06-23 22:35:00,
2013-06-23 15:40:00,68.0,46.4,29.62,South,182,0.0,6.0,46,0.00,CLR,,0.00,WeatherDisplay:10.37,2013-06-23 22:40:00,
2013-06-23 15:45:00,68.0,46.4,29.62,WSW,242,2.0,6.0,46,0.00,CLR,,0.00,WeatherDisplay:10.37,2013-06-23 22:45:00,
2013-06-23 15:50:00,68.0,46.4,29.62,SW,229,0.0,6.0,46,0.00,CLR,,0.00,WeatherDisplay:10.37,2013-06-23 22:50:00,
2013-06-23 15:55:00,68.0,46.4,29.62,SSW,205,3.0,7.0,46,0.00,CLR,,0.00,WeatherDisplay:10.37,2013-06-23 22:55:00,
2013-06-23 16:00:00,68.0,46.4,29.62,WSW,251,0.0,5.0,46,0.00,CLR,,0.00,WeatherDisplay:10.37,2013-06-23 23:00:00,
2013-06-23 16:05:00,67.6,44.9,29.62,SW,218,0.0,5.0,44,0.00,CLR,,0.00,WeatherDisplay:10.37,2013-06-23 23:05:00,
2013-06-23 16:10:00,67.1,43.2,29.62,South,175,2.0,6.0,42,0.00,CLR,,0.00,WeatherDisplay:10.37,2013-06-23 23:10:00,
2013-06-23 16:15:00,67.1,43.2,29.62,South,178,1.0,6.0,42,0.00,CLR,,0.00,WeatherDisplay:10.37,2013-06-23 23:15:00,
2013-06-23 16:25:00,67.1,43.2,29.62,SSW,212,5.0,8.0,42,0.00,CLR,,0.00,WeatherDisplay:10.37,2013-06-23 23:25:00,
2013-06-23 16:30:00,67.1,43.2,29.62,WSW,241,0.0,8.0,42,0.00,CLR,,0.00,WeatherDisplay:10.37,2013-06-23 23:30:00,
2013-06-23 16:35:00,67.1,43.2,29.62,SSW,199,3.0,7.0,42,0.00,CLR,,0.00,WeatherDisplay:10.37,2013-06-23 23:35:00,
2013-06-23 16:40:00,67.1,43.2,29.62,South,187,2.0,7.0,42,0.00,CLR,,0.00,WeatherDisplay:10.37,2013-06-23 23:40:00,
2013-06-23 16:45:00,67.1,43.2,29.62,SSW,212,2.0,7.0,42,0.00,CLR,,0.00,WeatherDisplay:10.37,2013-06-23 23:45:00,
2013-06-23 16:50:00,66.8,42.9,29.62,SW,224,0.0,5.0,42,0.00,CLR,,0.00,WeatherDisplay:10.37,2013-06-23 23:50:00,
2013-06-23 16:55:00,65.5,43.0,29.62,South,185,0.0,5.0,44,0.00,CLR,,0.00,WeatherDisplay:10.37,2013-06-23 23:55:00,
2013-06-23 17:00:00,65.5,43.0,29.62,SW,236,2.0,6.0,44,0.00,CLR,,0.00,WeatherDisplay:10.37,2013-06-24 00:00:00,
2013-06-23 17:05:00,65.5,43.0,29.62,WSW,257,0.0,6.0,44,0.00,CLR,,0.00,WeatherDisplay:10.37,2013-06-24 00:05:00,
2013-06-23 17:10:00,64.8,42.4,29.62,SW,219,0.0,6.0,44,0.00,CLR,,0.00,WeatherDisplay:10.37,2013-06-24 00:10:00,
2013-06-23 17:15:00,65.7,43.7,29.62,SW,222,1.0,5.0,45,0.00,CLR,,0.00,WeatherDisplay:10.37,2013-06-24 00:15:00,
2013-06-23 17:20:00,65.3,42.8,29.62,SW,227,0.0,8.0,44,0.00,CLR,,0.00,WeatherDisplay:10.37,2013-06-24 00:20:00,
2013-06-23 17:25:00,64.8,42.9,29.62,SW,230,0.0,7.0,45,0.00,CLR,,0.00,WeatherDisplay:10.37,2013-06-24 00:25:00,
2013-06-23 17:30:00,64.6,42.7,29.62,WSW,253,0.0,3.0,45,0.00,CLR,,0.00,WeatherDisplay:10.37,2013-06-24 00:30:00,
2013-06-23 17:35:00,64.6,42.7,29.62,WSW,255,0.0,6.0,45,0.00,CLR,,0.00,WeatherDisplay:10.37,2013-06-24 00:35:00,
2013-06-23 17:40:00,64.6,42.7,29.62,WSW,251,0.0,6.0,45,0.00,CLR,,0.00,WeatherDisplay:10.37,2013-06-24 00:40:00,
2013-06-23 17:45:00,64.6,42.7,29.62,West,259,2.0,7.0,45,0.00,CLR,,0.00,WeatherDisplay:10.37,2013-06-24 00:45:00,
2013-06-23 17:50:00,64.6,42.7,29.62,West,265,0.0,6.0,45,0.00,CLR,,0.00,WeatherDisplay:10.37,2013-06-24 00:50:00,
2013-06-23 17:55:00,64.6,42.7,29.59,SW,230,1.0,4.0,45,0.00,CLR,,0.00,WeatherDisplay:10.37,2013-06-24 00:55:00,
2013-06-23 18:00:00,64.6,42.7,29.59,SSW,198,0.0,5.0,45,0.00,CLR,,0.00,WeatherDisplay:10.37,2013-06-24 01:00:00,
2013-06-23 18:05:00,64.6,42.7,29.59,WSW,243,2.0,6.0,45,0.00,CLR,,0.00,WeatherDisplay:10.37,2013-06-24 01:05:00,
2013-06-23 18:10:00,64.0,42.8,29.59,SW,235,2.0,6.0,46,0.00,CLR,,0.00,WeatherDisplay:10.37,2013-06-24 01:10:00,
2013-06-23 18:15:00,64.0,42.8,29.59,WSW,253,2.0,9.0,46,0.00,CLR,,0.00,WeatherDisplay:10.37,2013-06-24 01:15:00,
2013-06-23 18:20:00,64.0,42.8,29.59,WSW,237,0.0,9.0,46,0.00,CLR,,0.00,WeatherDisplay:10.37,2013-06-24 01:20:00,
2013-06-23 18:30:00,64.0,42.8,29.59,West,259,0.0,5.0,46,0.00,CLR,,0.00,WeatherDisplay:10.37,2013-06-24 01:30:00,
2013-06-23 18:35:00,64.0,42.8,29.59,West,259,2.0,5.0,46,0.00,CLR,,0.00,WeatherDisplay:10.37,2013-06-24 01:35:00,
2013-06-23 18:40:00,64.0,42.8,29.59,WSW,253,2.0,8.0,46,0.00,CLR,,0.00,WeatherDisplay:10.37,2013-06-24 01:40:00,
2013-06-23 18:45:00,64.0,42.8,29.59,WSW,243,0.0,5.0,46,0.00,CLR,,0.00,WeatherDisplay:10.37,2013-06-24 01:45:00,
2013-06-23 18:50:00,64.0,42.8,29.59,WSW,246,5.0,8.0,46,0.00,CLR,,0.00,WeatherDisplay:10.37,2013-06-24 01:50:00,
2013-06-23 18:55:00,64.0,42.8,29.59,WSW,246,0.0,6.0,46,0.00,CLR,,0.00,WeatherDisplay:10.37,2013-06-24 01:55:00,
2013-06-23 19:00:00,64.0,42.8,29.59,WSW,243,2.0,8.0,46,0.00,CLR,,0.00,WeatherDisplay:10.37,2013-06-24 02:00:00,
2013-06-23 19:05:00,64.0,42.8,29.59,WSW,255,2.0,6.0,46,0.00,CLR,,0.00,WeatherDisplay:10.37,2013-06-24 02:05:00,
2013-06-23 19:10:00,64.0,42.8,29.59,West,262,2.0,8.0,46,0.00,CLR,,0.00,WeatherDisplay:10.37,2013-06-24 02:10:00,
2013-06-23 19:15:00,60.3,42.0,29.59,WSW,246,1.0,8.0,51,0.00,CLR,,0.00,WeatherDisplay:10.37,2013-06-24 02:15:00,
2013-06-23 19:20:00,60.3,42.0,29.59,SW,231,2.0,8.0,51,0.00,CLR,,0.00,WeatherDisplay:10.37,2013-06-24 02:20:00,
2013-06-23 19:25:00,60.3,42.0,29.59,SSW,211,2.0,8.0,51,0.00,CLR,,0.00,WeatherDisplay:10.37,2013-06-24 02:25:00,
2013-06-23 19:30:00,59.5,42.4,29.59,SW,219,3.0,10.0,53,0.00,CLR,,0.00,WeatherDisplay:10.37,2013-06-24 02:30:00,
2013-06-23 19:35:00,59.5,42.4,29.59,WSW,246,0.0,7.0,53,0.00,CLR,,0.00,WeatherDisplay:10.37,2013-06-24 02:35:00,
2013-06-23 19:40:00,59.4,43.2,29.59,SE,128,0.0,5.0,55,0.00,CLR,,0.00,WeatherDisplay:10.37,2013-06-24 02:40:00,
2013-06-23 19:45:00,59.3,43.1,29.59,NE,53,0.0,3.0,55,0.00,CLR,,0.00,WeatherDisplay:10.37,2013-06-24 02:45:00,
2013-06-23 19:50:00,59.0,43.3,29.59,ESE,108,0.0,5.0,56,0.00,CLR,,0.00,WeatherDisplay:10.37,2013-06-24 02:50:00,
2013-06-23 19:55:00,58.6,44.8,29.59,SSE,151,0.0,7.0,60,0.00,CLR,,0.00,WeatherDisplay:10.37,2013-06-24 02:55:00,
2013-06-23 20:00:00,58.6,44.8,29.59,South,178,2.0,7.0,60,0.00,CLR,,0.00,WeatherDisplay:10.37,2013-06-24 03:00:00,
2013-06-23 20:05:00,58.6,45.6,29.59,South,188,2.0,6.0,62,0.00,CLR,,0.00,WeatherDisplay:10.37,2013-06-24 03:05:00,
2013-06-23 20:10:00,58.3,45.7,29.59,SE,127,0.0,8.0,63,0.00,CLR,,0.00,WeatherDisplay:10.37,2013-06-24 03:10:00,
2013-06-23 20:15:00,58.0,46.3,29.59,ESE,108,0.0,6.0,65,0.00,CLR,,0.00,WeatherDisplay:10.37,2013-06-24 03:15:00,
2013-06-23 20:20:00,57.9,45.8,29.59,SSW,212,2.0,6.0,64,0.00,CLR,,0.00,WeatherDisplay:10.37,2013-06-24 03:20:00,
2013-06-23 20:30:00,57.6,46.3,29.59,SSE,162,0.0,6.0,66,0.00,CLR,,0.00,WeatherDisplay:10.37,2013-06-24 03:30:00,
2013-06-23 20:35:00,57.7,46.8,29.59,SSE,168,0.0,6.0,67,0.00,CLR,,0.00,WeatherDisplay:10.37,2013-06-24 03:35:00,
2013-06-23 20:40:00,57.7,46.9,29.59,South,188,2.0,5.0,67,0.00,CLR,,0.00,WeatherDisplay:10.37,2013-06-24 03:40:00,
2013-06-23 20:45:00,57.6,46.3,29.59,South,179,2.0,8.0,66,0.00,CLR,,0.00,WeatherDisplay:10.37,2013-06-24 03:45:00,
2013-06-23 20:50:00,57.4,46.5,29.59,SSE,168,0.0,6.0,67,0.00,CLR,,0.00,WeatherDisplay:10.37,2013-06-24 03:50:00,
2013-06-23 20:55:00,57.4,46.5,29.59,SSW,200,2.0,5.0,67,0.00,CLR,,0.00,WeatherDisplay:10.37,2013-06-24 03:55:00,
2013-06-23 21:00:00,57.4,46.5,29.59,SW,217,3.0,6.0,67,0.00,CLR,,0.00,WeatherDisplay:10.37,2013-06-24 04:00:00,
2013-06-23 21:05:00,57.4,46.5,29.59,SW,215,0.0,6.0,67,0.00,CLR,,0.00,WeatherDisplay:10.37,2013-06-24 04:05:00,
2013-06-23 21:10:00,57.4,46.9,29.59,South,186,0.0,0.0,68,0.00,CLR,,0.00,WeatherDisplay:10.37,2013-06-24 04:10:00,
2013-06-23 21:15:00,57.2,46.7,29.59,SE,141,2.0,4.0,68,0.00,CLR,,0.00,WeatherDisplay:10.37,2013-06-24 04:15:00,
2013-06-23 21:20:00,57.2,46.7,29.59,SSE,168,0.0,4.0,68,0.00,CLR,,0.00,WeatherDisplay:10.37,2013-06-24 04:20:00,
2013-06-23 21:25:00,57.2,46.7,29.59,South,185,0.0,6.0,68,0.00,CLR,,0.00,WeatherDisplay:10.37,2013-06-24 04:25:00,
2013-06-23 21:30:00,57.2,46.7,29.59,SW,233,2.0,7.0,68,0.00,CLR,,0.00,WeatherDisplay:10.37,2013-06-24 04:30:00,
2013-06-23 21:35:00,57.2,46.7,29.59,SW,219,0.0,2.0,68,0.00,CLR,,0.00,WeatherDisplay:10.37,2013-06-24 04:35:00,
2013-06-23 21:40:00,57.2,46.7,29.59,East,90,0.0,0.0,68,0.00,CLR,,0.00,WeatherDisplay:10.37,2013-06-24 04:40:00,
2013-06-23 21:50:00,57.0,46.9,29.59,South,178,0.0,4.0,69,0.00,CLR,,0.00,WeatherDisplay:10.37,2013-06-24 04:50:00,
2013-06-23 21:55:00,57.0,46.9,29.59,WSW,256,0.0,0.0,69,0.00,CLR,,0.00,WeatherDisplay:10.37,2013-06-24 04:55:00,
2013-06-23 22:00:00,57.0,46.9,29.59,WSW,241,0.0,2.0,69,0.00,CLR,,0.00,WeatherDisplay:10.37,2013-06-24 05:00:00,
2013-06-23 22:05:00,56.8,47.2,29.59,West,277,0.0,3.0,70,0.00,CLR,,0.00,WeatherDisplay:10.37,2013-06-24 05:05:00,
2013-06-23 22:10:00,56.8,47.2,29.59,WNW,302,0.0,5.0,70,0.00,CLR,,0.00,WeatherDisplay:10.37,2013-06-24 05:10:00,
2013-06-23 22:15:00,56.8,47.2,29.59,NE,40,0.0,5.0,70,0.00,CLR,,0.00,WeatherDisplay:10.37,2013-06-24 05:15:00,
2013-06-23 22:20:00,56.8,47.2,29.59,East,95,0.0,6.0,70,0.00,CLR,,0.00,WeatherDisplay:10.37,2013-06-24 05:20:00,
2013-06-23 22:25:00,56.8,47.2,29.59,ESE,123,0.0,4.0,70,0.00,CLR,,0.00,WeatherDisplay:10.37,2013-06-24 05:25:00,
2013-06-23 22:30:00,56.8,47.2,29.59,SE,146,0.0,3.0,70,0.00,CLR,,0.00,WeatherDisplay:10.37,2013-06-24 05:30:00,
2013-06-23 22:35:00,56.8,47.2,29.59,SSW,197,0.0,5.0,70,0.00,CLR,,0.00,WeatherDisplay:10.37,2013-06-24 05:35:00,
2013-06-23 22:40:00,56.3,47.0,29.59,SW,227,1.0,5.0,71,0.00,CLR,,0.00,WeatherDisplay:10.37,2013-06-24 05:40:00,
2013-06-23 22:50:00,56.3,47.4,29.59,West,259,0.0,3.0,72,0.00,CLR,,0.00,WeatherDisplay:10.37,2013-06-24 05:50:00,
2013-06-23 23:00:00,56.3,47.4,29.59,WNW,302,0.0,4.0,72,0.00,CLR,,0.00,WeatherDisplay:10.37,2013-06-24 06:00:00,
2013-06-23 23:05:00,56.3,47.4,29.59,West,270,0.0,4.0,72,0.00,CLR,,0.00,WeatherDisplay:10.37,2013-06-24 06:05:00,
2013-06-23 23:14:00,56.3,47.4,29.59,West,274,0.0,6.0,72,0.00,CLR,,0.00,WeatherDisplay:10.37,2013-06-24 06:14:00,
2013-06-23 23:20:00,56.3,47.4,29.59,WSW,251,0.0,7.0,72,0.00,CLR,,0.00,WeatherDisplay:10.37,2013-06-24 06:20:00,
2013-06-23 23:30:00,56.3,47.4,29.59,SSW,211,2.0,5.0,72,0.00,CLR,,0.00,WeatherDisplay:10.37,2013-06-24 06:30:00,
2013-06-23 23:35:00,56.3,47.4,29.59,West,259,3.0,5.0,72,0.00,CLR,,0.00,WeatherDisplay:10.37,2013-06-24 06:35:00,
2013-06-23 23:40:00,56.3,47.4,29.59,WNW,300,2.0,5.0,72,0.00,CLR,,0.00,WeatherDisplay:10.37,2013-06-24 06:40:00,
2013-06-23 23:45:00,56.3,47.4,29.59,North,5,0.0,4.0,72,0.00,CLR,,0.00,WeatherDisplay:10.37,2013-06-24 06:45:00,
2013-06-23 23:55:00,56.3,47.4,29.59,ENE,64,0.0,3.0,72,0.00,CLR,,0.00,WeatherDisplay:10.37,2013-06-24 06:55:00,